User: anonymous   Login
Location: Unspecified
(0.0000°N, 0.0000°E)
Time: 10:14:44
(UTC+00:00)
Language:

Himawari 4 - Orbit

View from above orbital plane
View from above orbital plane
View from above satellite
View from above satellite

Ground track
Ground track

The orbit data is extracted from the following two-line orbital elements,

1 20217U 89070A   19082.05813696 -.00000170  00000-0  00000+0 0  9992
2 20217  15.8328   7.5656 0044921  73.5022 128.2788  0.97412485106787
Epoch (UTC): 23 March 2019 01:23:43
Eccentricity: 0.0044921
inclination: 15.8328°
perigee height: 36414 km
apogee height: 36800 km
right ascension of ascending node: 7.5656°
argument of perigee: 73.5022°
revolutions per day: 0.97412485
mean anomaly at epoch: 128.2788°
orbit number at epoch: 10678

The dashed part of the orbit path shows where the satellite is in the earth's shadow,  

DLR